loading
DOY 175 | 2024-06-23T10:31:35Z
Showing default

KEPLER-16 (ASTRAEUS), 51057

Orbit data source: Space-Track

KEPLER-16 (ASTRAEUS), 51057 is a payload satellite owned by Kepler Comms (CA) in LEO that was launched on Thu, 13 Jan 2022 UTC via a Falcon 9 launch vehicle from the Air Force Eastern Test Range (AFETR). Payloads include a variety of satellites, spacecraft, and rockets equipped with specific instruments for various scientific and technological missions. These include communications satellites like Starlink; space stations such as the ISS; scientific satellites like the Hubble; Earth observation satellites from companies like Planet Labs, Umbra, and HawkEye 360; GPS; miniature CubeSats for education and research; and military/defense satellites.

Loading next visibility...
Loading greatness...
KEPLER-16 (ASTRAEUS) details
NORAD ID51057
COSPAR ID
2022-002CB
Orbit
LEO
Last TLE update17 hours ago
Origin
Flag of CAKepler Comms (CA)
ManufacturerKEPLER/UTIAS
BusCubesat 6U
MotorUnknown
Mass15 kg wet, 15 kg dry
Launch date (UTC)
2022-01-13 (2 years ago)
Launch vehicle
Falcon 9
Launch site
Air Force Eastern Test Range (AFETR)
Object type
Payload
Rocket body
Debris
Radar Cross SectionMedium (>0.1 m² and <1 m²)
Predictive object data (real-time)
Latitude-46.06093°
Longitude78.35386°
Altitude485.832 km
Speed7.622 km/s
Apparent Right ascension13h 09m 40s
Apparent Declination-57° 26' 19"
Sunlit
Object is in full shadow
Predictive observer data (real-time)
Local Sidereal Time21:39:27
Azimuth224.393° SW
Elevation-52.353°
Doppler factor1
Orbital elements
Apogee470.401 km
Perigee462.672 km
Semi-major axis6,844.673 km
Eccentricity0.0005646
Inclination97.3915°
RAAN243.6276°
Arg. of periapsis22.3573°
True anomaly337.76683°
Mean anomaly337.7913°
Mean motion3.83278 °/min
BSTAR0.00042738
Period93.93 mins
Definitive object data (Epoch: 2024-06-22T17:29:09.205Z)
Latitude-0.00012°
Longitude69.95151°
Altitude469.114 km
Speed7.634 km/s
True Right ascension16h 14m 30s
True Declination0° 00' 00"
Sunlit
Object was in full shadow at TLE epoch
TLE from 17 hours ago
0 KEPLER-16 (ASTRAEUS)
1 51057U 22002CB  24174.72857877  .00013177  00000-0  42738-3 0  9999
2 51057  97.3915 243.6276 0005646  22.3573 337.7913 15.32086849135409
Epoch: 2024-06-22T17:29Z
No data available

KEPLER-16 (ASTRAEUS) Visibility forecast

Observer location: 39.9160978°, -105.1181434, 0m alt.

KEPLER-16 (ASTRAEUS) is not visible in the next 10 days
Span
Click to sort rows by Start time (UTC) header in descending order
Start Az.
Max El. time (UTC)
Max El. Az.
Max El.
End time (UTC)
End Az.